Tracking 19242 objects as of 16-Aug-2018
HD Live streaming from Space Station
objects crossing your sky now

NOAA 16 DEB

Track NOAA 16 DEB now!
10-day predictions


NORAD ID: 42427
Int'l Code: 2000-055TX
Perigee: 736.4 km
Apogee: 852.8 km
Inclination: 98.9 °
Period: 100.6 minutes
Semi major axis: 7165 km
RCS: Unknown
Launch date: September 21, 2000
Source: United States (US)
Launch site: AIR FORCE WESTERN TEST RANGE (AFWTR)

Note: This is SATELLITE DEBRIS
aabbcc
Your satellite tracking list
Your tracking list is empty




NASA's NSSDC Master Catalog

Two Line Element Set (TLE):
1 42427U 00055TX  18227.06146399 +.00000795 +00000-0 +30647-3 0  9991
2 42427 098.8537 326.8983 0081200 088.2936 272.7545 14.31278657104604
Source of the keplerian elements: AFSPC